GW3984 Weather Reports


Display with metric or nautical units.
time (UTC)temp
F
wind
direction
speed
MPH
gust
MPH
rain 1hr
in
rain 24hr
in
rain mn
in
humidity
%
barometer
mb
20260509042352 71 118 0.0 0.0 0.00 0.00 0.00 93 1010.6
20260509041512 70 159 0.0 1.0 0.00 0.00 0.00 92 1011.2
20260509040232 70 138 0.0 0.0 0.00 0.00 0.00 92 1010.3
20260509040008 69 166 0.0 1.0 0.00 0.00 0.00 92 1011.1
20260509035226 70 123 0.0 0.0 0.00 0.00 0.00 92 1010.2
20260509034521 70 126 0.0 0.0 0.00 0.00 0.00 91 1010.8
20260509034217 70 123 0.0 0.0 0.00 0.00 0.00 91 1010.1
20260509033150 71 123 0.0 0.0 0.00 0.00 0.00 91 1010.0
20260509033022 70 126 0.0 0.0 0.00 0.00 0.00 90 1010.7
20260509032154 71 123 0.0 0.0 0.00 0.00 0.00 90 1010.1
20260509031527 71 126 0.0 2.0 0.00 0.00 0.00 90 1010.8
20260509031210 72 123 0.0 0.0 0.00 0.00 0.00 90 1010.0
20260509030034 72 129 0.0 2.0 0.00 0.00 0.00 89 1010.8
20260509025051 72 127 0.0 0.0 0.00 0.00 0.00 89 1010.1
20260509024518 72 129 0.0 2.0 0.00 0.00 0.00 89 1010.8
20260509023025 72 131 0.0 2.0 0.00 0.00 0.00 88 1010.8
20260509022928 73 129 0.0 0.0 0.00 0.00 0.00 89 1010.0
20260509021924 72 121 0.0 0.0 0.00 0.00 0.00 89 1009.8
20260509021513 72 115 0.0 2.0 0.00 0.00 0.00 89 1010.4
20260509020905 72 139 0.0 1.0 0.00 0.00 0.00 89 1009.6
20260509020016 72 140 0.0 0.0 0.00 0.00 0.00 88 1010.1
20260509015845 72 139 0.0 0.0 0.00 0.00 0.00 88 1009.4
20260509014524 72 140 0.0 2.0 0.00 0.00 0.00 87 1009.9
20260509013026 73 144 0.0 2.0 0.00 0.00 0.00 86 1009.6
20260509011510 73 127 0.0 0.0 0.00 0.00 0.00 86 1008.9
20260509011504 73 129 0.0 2.0 0.00 0.00 0.00 85 1009.7
20260509010516 74 131 0.0 0.0 0.00 0.00 0.00 86 1008.9
20260509010026 73 134 0.0 2.0 0.00 0.00 0.00 85 1009.5
20260509004533 74 134 0.0 2.0 0.00 0.00 0.00 84 1009.5
20260509004347 74 132 0.0 0.0 0.00 0.00 0.00 84 1008.8
20260509003355 75 165 0.0 1.0 0.00 0.00 0.00 83 1008.9
20260509003018 74 134 1.0 2.0 0.00 0.00 0.00 82 1009.6
20260509001519 74 181 0.0 2.0 0.00 0.00 0.00 82 1009.5
20260509001154 75 140 0.0 0.0 0.00 0.00 0.00 82 1008.8
20260509000157 75 133 0.0 0.0 0.00 0.00 0.00 81 1008.8
20260509000026 75 129 0.0 2.0 0.00 0.00 0.00 81 1009.6
20260508235208 75 141 0.0 0.0 0.00 0.00 0.00 81 1008.9
20260508234512 75 123 0.0 3.0 0.00 0.00 0.00 81 1009.7
20260508234205 75 129 0.0 0.0 0.00 0.00 0.00 81 1008.9
20260508233208 75 148 0.0 4.0 0.00 0.00 0.00 80 1008.9
20260508233008 75 147 1.0 6.0 0.00 0.00 0.00 79 1009.7
20260508232223 76 162 0.0 1.0 0.00 0.00 0.00 79 1008.8
20260508231507 75 169 0.0 2.0 0.00 0.00 0.00 78 1009.6
20260508231228 76 72 0.0 1.0 0.00 0.00 0.00 79 1008.9
20260508230242 76 60 0.0 4.0 0.00 0.00 0.00 79 1008.8
20260508230025 75 332 1.0 6.0 0.00 0.00 0.00 79 1009.6
20260508225251 75 118 0.0 4.0 0.00 0.00 0.00 79 1008.8
20260508224523 75 137 0.0 3.0 0.00 0.00 0.00 80 1009.7
20260508224311 75 122 0.0 4.0 0.00 0.00 0.00 80 1009.0
20260508223259 75 139 0.0 4.0 0.00 0.00 0.00 81 1009.0
20260508223021 74 132 1.0 4.0 0.00 0.00 0.00 80 1009.8
20260508222306 74 75 0.0 2.0 0.00 0.00 0.00 81 1009.2
20260508221521 74 68 0.0 4.0 0.00 0.00 0.00 81 1009.9
20260508221313 74 107 0.0 5.0 0.00 0.00 0.00 81 1009.3
20260508220324 74 144 1.0 5.0 0.00 0.00 0.00 82 1009.3
20260508220020 74 125 1.0 5.0 0.00 0.00 0.00 81 1009.9
20260508215324 74 149 0.0 3.0 0.00 0.00 0.00 83 1009.4
20260508214515 73 213 0.0 4.0 0.00 0.00 0.00 82 1010.2
20260508214325 73 121 0.0 2.0 0.00 0.00 0.00 83 1009.5
20260508213027 73 117 1.0 6.0 0.00 0.00 0.00 81 1010.4
20260508212231 74 144 1.0 4.0 0.00 0.00 0.00 82 1009.6
20260508211526 73 148 2.0 6.0 0.00 0.00 0.00 81 1010.5
20260508211239 74 155 1.0 4.0 0.00 0.00 0.00 82 1009.7
20260508210028 74 161 2.0 7.0 0.00 0.00 0.00 80 1010.8
20260508205201 74 152 0.0 5.0 0.00 0.00 0.00 81 1010.1
20260508204529 73 183 1.0 6.0 0.00 0.00 0.00 80 1010.9
20260508204137 74 134 0.0 4.0 0.00 0.00 0.00 80 1010.2
20260508203137 75 115 0.0 4.0 0.00 0.00 0.00 80 1010.2
20260508203025 74 127 1.0 6.0 0.00 0.00 0.00 80 1010.8
20260508202200 75 136 0.0 4.0 0.00 0.00 0.00 79 1010.1
20260508201526 74 157 2.0 5.0 0.00 0.00 0.00 80 1010.9
20260508201224 74 137 1.0 4.0 0.00 0.00 0.00 80 1010.2
20260508200023 74 137 3.0 6.0 0.00 0.00 0.00 82 1011.1
20260508195107 73 176 0.0 3.0 0.00 0.00 0.00 80 1010.5
20260508194529 73 123 1.0 4.0 0.00 0.00 0.00 81 1011.3
20260508194042 74 148 0.0 3.0 0.00 0.00 0.00 79 1010.6
20260508193041 73 130 0.0 3.0 0.00 0.00 0.00 80 1010.6
20260508193019 73 135 2.0 5.0 0.00 0.00 0.00 80 1011.3
20260508192043 73 65 0.0 2.0 0.00 0.00 0.00 82 1010.8
20260508191516 73 117 1.0 5.0 0.00 0.00 0.00 81 1011.5
20260508191047 73 150 0.0 4.0 0.00 0.00 0.00 81 1010.8
20260508190029 73 158 1.0 4.0 0.00 0.00 0.00 80 1011.5
20260508184919 73 311 0.0 1.0 0.00 0.00 0.00 82 1011.0
20260508184531 73 196 1.0 4.0 0.00 0.00 0.00 80 1011.7
20260508183906 73 97 0.0 3.0 0.00 0.00 0.00 81 1011.0
20260508183028 71 155 1.0 4.0 0.00 0.00 0.00 82 1011.9
20260508181734 71 162 0.0 1.0 0.00 0.00 0.00 82 1011.5
20260508181532 71 130 0.0 3.0 0.00 0.00 0.00 82 1012.3
20260508180710 71 139 0.0 1.0 0.00 0.00 0.00 82 1011.7
20260508180025 70 200 0.0 2.0 0.00 0.00 0.00 83 1012.7
20260508174522 70 115 0.0 2.0 0.00 0.00 0.00 83 1012.7
20260508173409 70 101 0.0 1.0 0.00 0.00 0.00 84 1012.1
20260508173032 69 171 0.0 2.0 0.00 0.00 0.00 82 1012.8
20260508172346 70 150 0.0 2.0 0.00 0.00 0.00 83 1012.2
20260508171523 70 130 0.0 2.0 0.00 0.00 0.00 82 1012.8
20260508171315 70 112 0.0 0.0 0.00 0.00 0.00 82 1012.1
20260508170325 69 170 0.0 0.0 0.00 0.00 0.00 83 1012.2
20260508170030 69 199 0.0 2.0 0.00 0.00 0.00 81 1012.9
20260508165307 71 8 0.0 0.0 0.00 0.00 0.00 80 1012.2
20260508164526 68 352 0.0 0.0 0.00 0.00 0.00 83 1012.9
20260508163143 68 345 0.0 0.0 0.00 0.00 0.00 83 1012.4
20260508163025 68 339 0.0 0.0 0.00 0.00 0.00 82 1013.2
20260508161507 67 319 0.0 2.0 0.00 0.00 0.00 85 1013.2
20260508160930 66 359 0.0 0.0 0.00 0.00 0.00 87 1012.6
20260508160004 65 327 0.0 0.0 0.00 0.00 0.00 85 1013.7
20260508155943 66 333 0.0 0.0 0.00 0.00 0.00 86 1013.1
20260508155002 65 298 0.0 0.0 0.00 0.00 0.00 86 1013.1
20260508154503 65 297 0.0 2.0 0.00 0.00 0.00 86 1013.8
20260508153956 65 317 0.0 0.0 0.00 0.00 0.00 87 1013.2
20260508153032 64 350 0.0 2.0 0.00 0.00 0.00 87 1014.0
20260508153008 64 356 0.0 0.0 0.00 0.00 0.00 87 1013.4
20260508152028 64 309 0.0 1.0 0.00 0.00 0.00 88 1013.5
20260508151518 63 290 0.0 2.0 0.00 0.00 0.00 88 1014.2
20260508151004 63 323 0.0 0.0 0.00 0.00 0.00 89 1013.7
20260508150016 62 350 0.0 2.0 0.00 0.00 0.00 89 1014.3
20260508144515 62 308 0.0 2.0 0.00 0.00 0.00 89 1014.3
20260508143750 62 313 0.0 1.0 0.00 0.00 0.00 90 1013.6
20260508143020 62 308 0.0 2.0 0.00 0.00 0.00 89 1014.3
20260508141655 62 304 0.0 1.0 0.00 0.00 0.00 88 1013.8
20260508141510 61 299 0.0 2.0 0.00 0.00 0.00 88 1014.4
20260508140008 61 345 0.0 2.0 0.00 0.00 0.00 1014.4
20260508135556 62 354 0.0 0.0 0.00 0.00 0.00 87 1013.5
20260508134505 61 213 0.0 2.0 0.00 0.00 0.00 87 1014.1
20260508133347 62 291 0.0 1.0 0.00 0.00 0.00 87 1013.6
20260508133031 61 40 0.0 2.0 0.00 0.00 0.00 86 1014.0
20260508132332 62 218 0.0 0.0 0.00 0.00 0.00 86 1013.4
20260508131523 61 175 0.0 2.0 0.00 0.00 0.00 1014.0
20260508131331 62 194 0.0 0.0 0.00 0.00 0.00 85 1013.4
20260508130336 62 210 0.0 0.0 0.00 0.00 0.00 85 1013.4
20260508130024 61 175 0.0 2.0 0.00 0.00 0.00 1014.1
20260508125308 62 167 0.0 0.0 0.00 0.00 0.00 85 1013.5
20260508124520 61 199 0.0 2.0 0.00 0.00 0.00 1014.4
20260508124324 62 248 0.0 0.0 0.00 0.00 0.00 85 1013.7
20260508123251 62 248 0.0 0.0 0.00 0.00 0.00 85 1013.4
20260508123017 62 245 0.0 0.0 0.00 0.00 0.00 84 1014.1
20260508122241 62 248 0.0 0.0 0.00 0.00 0.00 83 1013.6
20260508121515 61 244 0.0 2.0 0.00 0.00 0.00 1014.5
20260508121252 62 246 0.0 0.0 0.00 0.00 0.00 83 1014.0
20260508120225 62 182 0.0 0.0 0.00 0.00 0.00 83 1013.8
20260508120013 61 182 0.0 0.0 0.00 0.00 0.00 82 1014.4
20260508115239 62 182 0.0 0.0 0.00 0.00 0.00 83 1013.7
20260508114508 61 147 0.0 2.0 0.00 0.00 0.00 82 1014.1
20260508114248 61 134 0.0 1.0 0.00 0.00 0.00 83 1013.4
20260508113215 62 304 0.0 1.0 0.00 0.00 0.00 83 1013.2
20260508113028 61 306 0.0 2.0 0.00 0.00 0.00 83 1014.1
20260508111524 61 303 0.0 2.0 0.00 0.00 0.00 84 1014.5
20260508110023 61 303 0.0 1.0 0.00 0.00 0.00 85 1014.4
20260508105913 61 307 0.0 0.0 0.00 0.00 0.00 86 1013.8
20260508104840 62 307 0.0 0.0 0.00 0.00 0.00 84 1014.1
20260508104523 61 302 0.0 2.0 0.00 0.00 0.00 83 1015.0
20260508103020 61 308 0.0 2.0 0.00 0.00 0.00 83 1014.7
20260508102710 61 309 0.0 0.0 0.00 0.00 0.00 84 1014.0
20260508101639 61 58 0.0 0.0 0.00 0.00 0.00 84 1013.5
20260508101520 61 48 0.0 2.0 0.00 0.00 0.00 84 1014.1
20260508100629 61 41 0.0 0.0 0.00 0.00 0.00 84 1013.7
20260508100014 60 350 0.0 2.0 0.00 0.00 0.00 84 1014.3
20260508095616 61 1 0.0 0.0 0.00 0.00 0.00 86 1013.6
20260508094628 61 337 0.0 0.0 0.00 0.00 0.00 86 1013.3
20260508094511 60 331 0.0 2.0 0.00 0.00 0.00 85 1013.9
20260508093556 61 334 0.0 0.0 0.00 0.00 0.00 87 1013.5
20260508093028 60 121 0.0 3.0 0.00 0.00 0.00 85 1013.5
20260508092550 61 141 0.0 1.0 0.00 0.00 0.00 86 1012.6
20260508091527 61 131 0.0 1.0 0.00 0.00 0.00 85 1014.0
20260508091518 61 131 0.0 0.0 0.00 0.00 0.00 86 1013.4
20260508090447 61 156 0.0 1.0 0.00 0.00 0.00 85 1013.7
20260508090027 60 292 0.0 2.0 0.00 0.00 0.00 85 1014.4
20260508085424 61 111 0.0 1.0 0.00 0.00 0.00 85 1013.7
20260508084521 60 319 0.0 2.0 0.00 0.00 0.00 85 1014.9
20260508084418 61 317 0.0 1.0 0.00 0.00 0.00 86 1014.2
20260508083401 61 27 0.0 1.0 0.00 0.00 0.00 86 1013.9
20260508083019 60 26 0.0 2.0 0.00 0.00 0.00 86 1014.9
20260508082353 61 23 0.0 1.0 0.00 0.00 0.00 86 1013.6
20260508081523 60 321 0.0 1.0 0.00 0.00 0.00 86 1014.7
20260508081323 61 322 0.0 0.0 0.00 0.00 0.00 87 1014.0
20260508080254 60 229 0.0 0.0 0.00 0.00 0.00 88 1013.7
20260508080017 60 227 0.0 0.0 0.00 0.00 0.00 88 1014.4
20260508075316 61 229 0.0 0.0 0.00 0.00 0.00 86 1014.2
20260508074513 61 227 0.0 0.0 0.00 0.00 0.00 81 1015.1
20260508074248 62 229 0.0 0.0 0.00 0.00 0.00 81 1014.5
20260508073029 62 227 0.0 0.0 0.00 0.00 0.00 76 1015.1
20260508072111 63 229 0.0 0.0 0.00 0.00 0.00 76 1014.6
20260508071529 63 227 0.0 0.0 0.00 0.00 0.00 75 1015.4
20260508071118 63 229 0.0 0.0 0.00 0.00 0.00 75 1014.6
20260508070108 63 229 0.0 0.0 0.00 0.00 0.00 76 1014.5
20260508070028 62 227 0.0 0.0 0.00 0.00 0.00 75 1015.1
20260508065033 63 229 0.0 0.0 0.00 0.00 0.00 75 1014.7
20260508064525 63 227 0.0 2.0 0.00 0.00 0.00 74 1015.6
20260508064010 63 229 0.0 0.0 0.00 0.00 0.00 74 1014.8
20260508063006 62 173 0.0 2.0 0.00 0.00 0.00 74 1015.0
20260508062940 63 172 0.0 0.0 0.00 0.00 0.00 75 1014.3
20260508061937 63 170 0.0 0.0 0.00 0.00 0.00 75 1013.6
20260508061507 62 150 0.0 2.0 0.00 0.00 0.00 76 1014.3
20260508060959 63 139 0.0 0.0 0.00 0.00 0.00 76 1013.9
20260508060019 63 228 0.0 2.0 0.00 0.00 0.00 75 1015.5
20260508060006 63 230 0.0 0.0 0.00 0.00 0.00 76 1014.8
20260508054955 63 143 0.0 0.0 0.00 0.00 0.00 76 1014.7
20260508054521 63 157 0.0 2.0 0.00 0.00 0.00 75 1015.5
20260508053922 63 167 0.0 0.0 0.00 0.00 0.00 76 1015.4
20260508053016 63 196 0.0 2.0 0.00 0.00 0.00 75 1015.8
20260508052902 63 217 0.0 1.0 0.00 0.00 0.00 76 1015.2
20260508051921 63 283 0.0 1.0 0.00 0.00 0.00 76 1015.2
20260508051521 63 156 0.0 2.0 0.00 0.00 0.00 75 1015.4
20260508050923 63 162 0.0 1.0 0.00 0.00 0.00 75 1015.0
20260508050012 63 300 0.0 2.0 0.00 0.00 0.00 74 1016.1
20260508045942 63 305 0.0 0.0 0.00 0.00 0.00 74 1015.3
20260508044931 63 24 0.0 1.0 0.00 0.00 0.00 75 1015.6
20260508044506 62 258 0.0 2.0 0.00 0.00 0.00 75 1015.9
20260508043900 62 317 0.0 0.0 0.00 0.00 0.00 77 1015.4
20260508043006 61 161 0.0 0.0 0.00 0.00 0.00 76 1014.6
20260508042915 62 160 0.0 0.0 0.00 0.00 0.00 77 1014.0